Location: Unspecified
(48.5539°N, 71.6350°W)
Time: 01:11:12
(UTC-05:00)

ISS - Pass Details

Date: 26 January 2019
Orbit: 403 x 411 km, 51.6° (Epoch: 18 February)

Event Time Altitude Azimuth Distance (km) Brightness Sun altitude
Rises 19:24:58 0° 267° (W) 2,336 1.3 -27.9°
Reaches altitude 10° 19:27:05 10° 272° (W) 1,477 0.0 -28.3°
Enters shadow 19:28:08 18° 278° (W) 1,071 -0.9 -28.4°
Maximum altitude 19:30:20 53° 351° (N) 516 - -28.8°
Drops below altitude 10° 19:33:36 10° 69° (ENE) 1,484 - -29.4°
Sets 19:35:44 0° 75° (ENE) 2,348 - -29.7°
